This is the latest recevied weather packets stored in our database for station/object WV5G-13. If no packets are shown the sender has not sent any weather packets the latest 10 day(s).
| Time | Temp. | Humidity | Pressure | Rain* | Wind** | Luminosity | Snow |
|---|---|---|---|---|---|---|---|
| 1777557408 | 8.89° C | 75% | 1016.2 hPa | 0 mm | - | 114 W/m² | - |
| 1777557104 | 8.89° C | 75% | 1016.1 hPa | 0 mm | - | 97 W/m² | - |
| 1777556800 | 8.89° C | 76% | 1016.2 hPa | 0 mm | - | 94 W/m² | - |
| 1777556497 | 8.89° C | 76% | 1016 hPa | 0 mm | - | 109 W/m² | - |
| 1777556196 | 8.89° C | 76% | 1016 hPa | 0 mm | - | 106 W/m² | - |
| 1777555892 | 8.89° C | 76% | 1016 hPa | 0 mm | - | 133 W/m² | - |
| 1777555588 | 8.89° C | 76% | 1015.8 hPa | 0 mm | - | 108 W/m² | - |
| 1777555285 | 8.89° C | 76% | 1015.8 hPa | 0 mm | - | 74 W/m² | - |
| 1777554981 | 8.33° C | 76% | 1015.7 hPa | 0 mm | - | 74 W/m² | - |
| 1777554679 | 8.33° C | 76% | 1015.6 hPa | 0 mm | - | 64 W/m² | - |
| 1777554375 | 8.33° C | 76% | 1015.5 hPa | 0 mm | - | 59 W/m² | - |
| 1777554072 | 8.33° C | 76% | 1015.6 hPa | 0 mm | - | 49 W/m² | - |
| 1777553769 | 8.33° C | 76% | 1015.5 hPa | 0 mm | - | 54 W/m² | - |
| 1777553465 | 8.33° C | 76% | 1015.7 hPa | 0 mm | - | 30 W/m² | - |
| 1777553161 | 8.33° C | 76% | 1015.4 hPa | 0 mm | - | 40 W/m² | - |
| 1777552856 | 8.33° C | 75% | 1015.5 hPa | 0 mm | - | 29 W/m² | - |
| 1777552552 | 8.33° C | 75% | 1015.2 hPa | 0 mm | - | 23 W/m² | - |
| 1777552248 | 7.78° C | 75% | 1015.5 hPa | 0 mm | - | 20 W/m² | - |
| 1777551945 | 7.78° C | 75% | 1015.5 hPa | 0 mm | - | 16 W/m² | - |
| 1777551643 | 7.78° C | 75% | 1015.5 hPa | 0 mm | - | 12 W/m² | - |
| 1777551340 | 7.78° C | 75% | 1015.7 hPa | 0 mm | - | 8 W/m² | - |
| 1777551036 | 7.78° C | 75% | 1015.4 hPa | 0 mm | - | 5 W/m² | - |
| 1777550733 | 7.78° C | 75% | 1015.6 hPa | 0 mm | - | 4 W/m² | - |
| 1777550430 | 7.78° C | 75% | 1015.4 hPa | 0 mm | - | 3 W/m² | - |
| 1777550126 | 7.78° C | 75% | 1015.2 hPa | 0 mm | - | 2 W/m² | - |
* Rain latest hour (hover to see other rain measurements)
** Current wind speed in m/s (hover to see current wind gust speed)